This demonstration page uses our WeatherBlox Daily Observations layout. Learn more.

Left ArrowRight Arrow

Hourly Observations for December 5, 2020

Temp ( °F °C ) Dew Point ( °F °C ) Humidity (%) Winds ( mph kmh ) Pressure ( in mb ) Visibility ( mi km ) Precip ( " mm )
12:15 am 00:15 Clear 32 0 32 0 100 100 WNW 5 7 30.06 1018 10 16.0934 N/A
12:35 am 00:35 Clear 30 -1 30 -1 100 100 NW 6 9 30.06 1018 10 16.0934 N/A
12:55 am 00:55 Clear 30 -1 30 -1 100 100 NNW 6 9 30.06 1018 10 16.0934 N/A
1:15 am 01:15 Clear 28 -2 28 -2 100 100 NNW 5 7 30.06 1018 10 16.0934 N/A
1:35 am 01:35 Clear 30 -1 30 -1 100 100 NW 5 7 30.07 1018 10 16.0934 N/A
1:55 am 01:55 Clear 30 -1 30 -1 100 100 Calm 30.07 1018 10 16.0934 N/A
2:15 am 02:15 Clear 28 -2 28 -2 100 100 Calm 30.07 1018 10 16.0934 N/A
2:35 am 02:35 Clear 28 -2 28 -2 100 100 Calm 30.07 1018 10 16.0934 N/A
2:55 am 02:55 Clear 27 -3 27 -3 100 100 Calm 30.08 1018 10 16.0934 N/A
3:15 am 03:15 Clear 23 -5 23 -5 100 100 Calm 30.09 1019 7 11.26538 N/A
3:35 am 03:35 Clear 25 -4 25 -4 100 100 Calm 30.1 1019 7 11.26538 N/A
3:55 am 03:55 Clear 27 -3 27 -3 100 100 Calm 30.1 1019 5 8.0467 N/A
4:15 am 04:15 Clear 25 -4 25 -4 100 100 Calm 30.11 1020 5 8.0467 N/A
4:35 am 04:35 Clear 25 -4 25 -4 100 100 Calm 30.12 1020 7 11.26538 N/A
4:55 am 04:55 Clear 25 -4 25 -4 100 100 Calm 30.12 1020 5 8.0467 N/A
5:15 am 05:15 Clear 23 -5 23 -5 100 100 Calm 30.12 1020 4 6.43736 N/A
5:35 am 05:35 Clear 25 -4 25 -4 100 100 Calm 30.12 1020 5 8.0467 N/A
5:55 am 05:55 Clear 25 -4 25 -4 100 100 Calm 30.13 1020 3 4.82802 N/A
6:15 am 06:15 Mostly Cloudy 21 -6 21 -6 100 100 Calm 30.14 1021 1.75 2.816345 N/A
6:35 am 06:35 Clear 25 -4 25 -4 100 100 Calm 30.14 1021 4 6.43736 N/A
6:55 am 06:55 Clear 21 -6 21 -6 100 100 Calm 30.16 1021 4 6.43736 N/A
7:15 am 07:15 Clear 23 -5 23 -5 100 100 Calm 30.16 1021 7 11.26538 N/A
7:35 am 07:35 Clear 23 -5 23 -5 100 100 Calm 30.16 1021 7 11.26538 N/A
7:55 am 07:55 Sunny 21 -6 21 -6 100 100 Calm 30.18 1022 5 8.0467 N/A
8:15 am 08:15 Sunny 23 -5 23 -5 100 100 Calm 30.18 1022 5 8.0467 N/A
8:35 am 08:35 Sunny 27 -3 27 -3 100 100 Calm 30.18 1022 7 11.26538 N/A
8:55 am 08:55 Sunny 30 -1 30 -1 100 100 NNW 8 13 30.17 1022 10 16.0934 N/A
9:15 am 09:15 Sunny 30 -1 30 -1 100 100 NNW 9 15 30.17 1022 10 16.0934 N/A
9:35 am 09:35 Sunny 32 0 32 0 100 100 N 9 15 30.18 1022 10 16.0934 N/A
9:55 am 09:55 Sunny 32 0 32 0 100 100 N 8 13 30.19 1022 10 16.0934 N/A
10:15 am 10:15 Sunny 34 1 34 1 100 100 N 8 13 30.18 1022 10 16.0934 N/A
10:35 am 10:35 Sunny 34 1 34 1 100 100 N 9 15 30.2 1023 10 16.0934 N/A
10:55 am 10:55 Sunny 36 2 32 0 87 87 NNW 10 17 30.2 1023 10 16.0934 N/A
11:15 am 11:15 Sunny 36 2 34 1 93 93 N 9 15 30.2 1023 10 16.0934 N/A
11:35 am 11:35 Partly Cloudy 37 3 32 0 81 81 NNW 10 17 30.19 1023 10 16.0934 N/A
11:55 am 11:55 Partly Cloudy 37 3 32 0 81 81 N 7 11 30.19 1023 10 16.0934 N/A
12:15 pm 12:15 Mostly Cloudy 36 2 32 0 87 87 NNW 7 11 30.2 1023 10 16.0934 N/A
12:35 pm 12:35 Mostly Cloudy 37 3 32 0 81 81 NNW 9 15 30.17 1022 10 16.0934 N/A
12:55 pm 12:55 Cloudy 37 3 32 0 81 81 N 8 13 30.17 1022 10 16.0934 N/A
1:15 pm 13:15 Cloudy 36 2 32 0 87 87 N 7 11 30.18 1022 10 16.0934 N/A
1:35 pm 13:35 Cloudy 37 3 30 -1 75 75 N 9 15 30.17 1022 10 16.0934 N/A
1:55 pm 13:55 Cloudy 37 3 32 0 81 81 NNW 9 15 30.16 1021 10 16.0934 N/A
2:15 pm 14:15 Cloudy 37 3 32 0 81 81 NNW 10 17 30.16 1021 10 16.0934 N/A
2:35 pm 14:35 Cloudy 36 2 30 -1 81 81 N 10 17 30.16 1021 10 16.0934 N/A
2:55 pm 14:55 Mostly Cloudy 36 2 30 -1 81 81 NW 6 9 30.17 1022 10 16.0934 N/A
3:15 pm 15:15 Mostly Cloudy 37 3 30 -1 75 75 NNW 12 19 30.15 1021 10 16.0934 N/A
3:35 pm 15:35 Mostly Cloudy 36 2 30 -1 81 81 N 5 7 30.17 1022 10 16.0934 N/A
3:55 pm 15:55 Cloudy 36 2 30 -1 81 81 N 10 17 30.16 1021 10 16.0934 N/A
4:15 pm 16:15 Cloudy 36 2 30 -1 81 81 N 7 11 30.16 1021 10 16.0934 N/A
4:35 pm 16:35 Cloudy 36 2 30 -1 81 81 NNW 8 13 30.16 1021 10 16.0934 N/A
4:55 pm 16:55 Cloudy 36 2 30 -1 81 81 NW 7 11 30.16 1021 10 16.0934 N/A
5:15 pm 17:15 Cloudy 36 2 30 -1 81 81 N 6 9 30.16 1021 10 16.0934 N/A
5:35 pm 17:35 Cloudy 34 1 30 -1 87 87 N 7 11 30.16 1021 10 16.0934 N/A
5:55 pm 17:55 Cloudy 34 1 30 -1 87 87 NNE 7 11 30.15 1021 10 16.0934 N/A
6:15 pm 18:15 Cloudy 34 1 30 -1 87 87 N 7 11 30.16 1021 10 16.0934 N/A
6:35 pm 18:35 Cloudy 34 1 32 0 93 93 NNE 6 9 30.15 1021 10 16.0934 N/A
6:55 pm 18:55 Cloudy 34 1 32 0 93 93 NE 7 11 30.16 1021 10 16.0934 N/A
7:15 pm 19:15 Cloudy 34 1 30 -1 87 87 NNE 3 6 30.16 1021 10 16.0934 N/A
7:35 pm 19:35 Cloudy 34 1 30 -1 87 87 NNE 7 11 30.16 1021 10 16.0934 N/A
7:55 pm 19:55 Cloudy 32 0 30 -1 93 93 N 5 7 30.18 1022 10 16.0934 N/A
8:15 pm 20:15 Cloudy 32 0 30 -1 93 93 NNE 7 11 30.17 1022 10 16.0934 N/A
8:35 pm 20:35 Cloudy 32 0 30 -1 93 93 NNE 6 9 30.17 1022 10 16.0934 N/A
8:55 pm 20:55 Cloudy 30 -1 30 -1 100 100 NNE 5 7 30.17 1022 10 16.0934 N/A
9:15 pm 21:15 Cloudy 30 -1 30 -1 100 100 ENE 3 6 30.17 1022 10 16.0934 N/A
9:35 pm 21:35 Cloudy 30 -1 30 -1 100 100 ENE 5 7 30.17 1022 10 16.0934 N/A
9:55 pm 21:55 Cloudy 30 -1 30 -1 100 100 ENE 3 6 30.17 1022 10 16.0934 N/A
10:15 pm 22:15 Cloudy 32 0 30 -1 93 93 NE 5 7 30.17 1022 10 16.0934 N/A
10:35 pm 22:35 Cloudy 32 0 30 -1 93 93 NNE 3 6 30.17 1022 10 16.0934 N/A
10:55 pm 22:55 Cloudy 30 -1 30 -1 100 100 NNE 5 7 30.17 1022 10 16.0934 N/A
11:15 pm 23:15 Cloudy 30 -1 28 -2 93 93 E 3 6 30.16 1021 10 16.0934 N/A
11:35 pm 23:35 Cloudy 30 -1 30 -1 100 100 Calm 30.16 1021 10 16.0934 N/A
11:55 pm 23:55 Cloudy 30 -1 28 -2 93 93 Calm 30.16 1021 10 16.0934 N/A

Powered by AerisWeather